Location: Broek
(53.2737°N, 5.9967°E)
Time: 21:26:45
(UTC+00:00)

BREEZE-M DEB (TANK) - Pass Details

Date: 10 October 2024
Orbit: 320 x 11425 km, 49.7° (Epoch: 09 November)

Event Time Altitude Azimuth Distance (km) Brightness Sun altitude
Rises 18:11:04 0° 245° (WSW) 2,113 7.4 -12.8°
Reaches altitude 10° 18:12:33 10° 238° (WSW) 1,409 6.2 -13.1°
Maximum altitude 18:15:10 46° 162° (SSE) 739 3.8 -13.4°
Enters shadow 18:18:09 20° 97° (E) 1,807 5.3 -13.9°
